Regional Weather Roundup
Issued by NWS

Home | Current Version | Previous Version | Text Only | Print | Product List | Glossary On
Versions: 1 2 3 4 5 6 7 8 9 10 11 12 13 14 15 16 17 18 19 20 21 22 23 24 25 26 27 28 29 30 31 32 33 34 35 36 37 38 39 40 41 42 43 44 45 46 47 48 49 50
000
ASUS43 KLMK 240110
RWRKY
KENTUCKY REGIONAL WEATHER ROUNDUP
NATIONAL WEATHER SERVICE LOUISVILLE KY
900 PM EDT WED JUL 23 2014

NOTE "FAIR" INDICATES FEW OR NO CLOUDS BELOW 12,000 FEET
WITH NO SIGNIFICANT WEATHER AND/OR OBSTRUCTIONS TO VISIBILITY.

KYZ001>023-026-027-061>063-070>075-240200-
WESTERN AND SOUTH CENTRAL KENTUCKY

CITY           SKY/WX    TMP DP  RH WIND       PRES   REMARKS
PADUCAH        CLOUDY    79  70  74 N3        30.00R
HENDERSON      CLOUDY    73  68  83 N10       30.00R
OWENSBORO      MOCLDY    77  73  87 W6        29.99R
HOPKINSVILLE   PTCLDY    79  71  76 NW8       29.99R
BOWLING GREEN  PTCLDY    81  66  60 N8        29.99R
GLASGOW        CLOUDY    78  69  74 CALM      29.99R
$$

KYZ024-025-028>034-038-045-046-053-240200-
NORTH CENTRAL KENTUCKY

CITY           SKY/WX    TMP DP  RH WIND       PRES   REMARKS
LOUISVILLE/SDF MOCLDY    82  69  64 N7        29.96R
LOUISVILLE/LOU MOCLDY    82  70  66 N7        29.97R
FORT KNOX      MOCLDY    77  71  81 W5        29.98R
$$

KYZ035>037-039>044-047>052-055>060-089>105-240200-
NORTHEAST KENTUCKY

CITY           SKY/WX    TMP DP  RH WIND       PRES   REMARKS
LEXINGTON      MOCLDY    79  69  71 SW7       29.98R
COVINGTON      CLOUDY    77  68  73 N9        29.98R
FRANKFORT      PTCLDY    79  68  69 CALM      29.96S
$$

KYZ054-064>069-076>088-106>120-240200-
SOUTHEAST KENTUCKY

CITY           SKY/WX    TMP DP  RH WIND       PRES   REMARKS
JACKSON        LGT RAIN  69  67  93 CALM      30.01R FOG
LONDON         LGT RAIN  76  69  79 N3        30.01R
SOMERSET       TSTM      70  70 100 NE5       30.02F
MIDDLESBORO    PTCLDY    73  70  90 CALM      30.00S
MONTICELLO     CLOUDY    74  71  90 NE8       30.02R
$$



USA.gov is the U.S. government's official web portal to all federal, state and local government web resources and services.